STARLINK-1608, 46146

Orbit data source: Space-Track

STARLINK-1608, 46146 is a payload satellite owned by SpaceX/Seattle (US) in LEO that was launched on Tue, 18 Aug 2020 UTC via an FALCON 9 launch vehicle from the Air Force Eastern Test Range (AFETR). Payload-class satellites include a variety of spacecraft equipped with specific instruments for various scientific and technological missions. These include communications satellites like Starlink; space stations such as the ISS; scientific satellites like the Hubble; Earth observation satellites from companies like Planet Labs, Umbra, and HawkEye 360; GPS; miniature CubeSats for education and research; and military/defense satellites.

Loading next visibility...
Identifier
46146, 2020-057AF
Orbit
LEO
Country
Flag of USUS
Related business
Manufacturer
SpaceX/Seattle
Mission
Operational Commercial Communications
Bus & Motor
STARLINK, Unknown motor
Mass
260 kg wet, ~248 kg dry
Launch date (UTC)
2020-08-18 (5 years ago)
Launch vehicle
FALCON 9
Launch site
Air Force Eastern Test Range (AFETR)
Object type
Payload
Rocket body
Debris
Shape & HBR
Box + 1 Pan, 4.4 m
Radar Cross Section
13.562 m², Large (>1 m²)

Expand to show TLE details & history
Last TLE update: 1 day ago

TLE from 1 day ago
0 STARLINK-1608
1 46146U 20057AF  25260.62338069 -.00000983  00000-0 -47134-4 0  9992
2 46146  53.0582  13.5466 0001658  96.2007 263.9171 15.06383256279988
Epoch: 2025-09-17T14:57Z
TLE epoch observation values (Epoch: 2025-09-17T14:57:40.091Z)
Latitude
-0.00002°
Longitude
152.33287°
Altitude
548.264 km
Speed
7.589 km/s
True Right ascension
00h 54m 11s
True Declination
0° 00' 00"
Sunlit
Object was in full shadow at epoch
Visualization orbit readout
Latitude
Unknown
Longitude
Unknown
Altitude
Unknown
Speed
Unknown
Apparent Right ascension
Unknown
Apparent Declination
Unknown
Sunlit
N/A
Visualization observer readout
Local Sidereal Time
10:53:18
Azimuth
Unknown
Elevation
Unknown
Doppler factor
Unknown
Orbital elements
Apogee altitude
548.681 km
Perigee altitude
546.385 km
Semi-major axis
6,925.67 km
Eccentricity
0.00017
Inclination
53.0582°
RAAN
13.5466°
Arg. of periapsis
96.2007°
True anomaly
263.89821°
Mean anomaly
263.9171°
Eccentric anomaly
263.90765°
Mean motion
3.76574 °/min
Orbital period
95.6 mins
BSTAR
-0.000047134
Loading maneuver chart data...
Computing Atmospheric mass density...
Loading historical data...
Loading historical data...
Loading historical data...
Loading historical data...
Loading historical data...
Loading historical data...
Loading historical data...

Documentation

Showing up to 5 results
|